Time,TemperatureF,DewpointF,PressureIn,WindDirection,WindDirectionDegrees,WindSpeedMPH,WindSpeedGustMPH,Humidity,HourlyPrecipIn,Conditions,Clouds,dailyrainin,SoftwareType,DateUTC
2013-04-29 00:12:00,44.6,36.1,30.23,SSW,202,0.0,-999.0,72,-99.99,,,0.00,Acu-Link.com,2013-04-29 04:12:00,
2013-04-29 00:27:00,44.2,37.1,30.23,North,0,0.0,-999.0,76,-99.99,,,0.00,Acu-Link.com,2013-04-29 04:27:00,
2013-04-29 00:42:00,44.1,37.7,30.24,NW,315,0.0,-999.0,78,-99.99,,,0.00,Acu-Link.com,2013-04-29 04:42:00,
2013-04-29 00:58:00,43.7,37.9,30.24,SW,225,0.0,-999.0,80,-99.99,,,0.00,Acu-Link.com,2013-04-29 04:58:00,
2013-04-29 01:13:00,43.5,37.7,30.23,North,0,0.0,-999.0,80,-99.99,,,0.00,Acu-Link.com,2013-04-29 05:13:00,
2013-04-29 01:28:00,43.3,38.2,30.22,SW,225,0.0,-999.0,82,-99.99,,,0.00,Acu-Link.com,2013-04-29 05:28:00,
2013-04-29 01:43:00,42.8,38.0,30.22,WNW,292,0.0,-999.0,83,-99.99,,,0.00,Acu-Link.com,2013-04-29 05:43:00,
2013-04-29 01:58:00,42.8,38.9,30.22,NE,45,0.0,-999.0,86,-99.99,,,0.00,Acu-Link.com,2013-04-29 05:58:00,
2013-04-29 02:13:00,42.6,39.0,30.21,North,0,0.0,-999.0,87,-99.99,,,0.00,Acu-Link.com,2013-04-29 06:13:00,
2013-04-29 02:28:00,42.4,38.8,30.21,NNW,337,0.0,-999.0,87,-99.99,,,0.00,Acu-Link.com,2013-04-29 06:28:00,
2013-04-29 02:43:00,42.1,39.1,30.20,NNW,337,0.0,-999.0,89,-99.99,,,0.00,Acu-Link.com,2013-04-29 06:43:00,
2013-04-29 02:58:00,42.1,39.4,30.20,WNW,292,0.0,-999.0,90,-99.99,,,0.00,Acu-Link.com,2013-04-29 06:58:00,
2013-04-29 03:13:00,41.9,39.5,30.20,WSW,247,0.0,-999.0,91,-99.99,,,0.00,Acu-Link.com,2013-04-29 07:13:00,
2013-04-29 03:29:00,41.7,39.3,30.20,WNW,292,0.0,-999.0,91,-99.99,,,0.00,Acu-Link.com,2013-04-29 07:29:00,
2013-04-29 03:44:00,41.7,39.6,30.20,North,0,0.0,-999.0,92,-99.99,,,0.00,Acu-Link.com,2013-04-29 07:44:00,
2013-04-29 03:59:00,41.7,39.6,30.20,North,0,0.0,-999.0,92,-99.99,,,0.00,Acu-Link.com,2013-04-29 07:59:00,
2013-04-29 04:14:00,41.5,40.7,30.20,NNW,337,0.0,-999.0,97,-99.99,,,0.00,Acu-Link.com,2013-04-29 08:14:00,
2013-04-29 04:29:00,41.5,41.0,30.21,SW,225,0.0,-999.0,98,-99.99,,,0.00,Acu-Link.com,2013-04-29 08:29:00,
2013-04-29 04:44:00,41.5,41.0,30.21,NW,315,0.0,-999.0,98,-99.99,,,0.00,Acu-Link.com,2013-04-29 08:44:00,
2013-04-29 04:59:00,41.7,41.2,30.21,WNW,292,0.0,-999.0,98,-99.99,,,0.00,Acu-Link.com,2013-04-29 08:59:00,
2013-04-29 05:15:00,41.7,41.2,30.21,NNE,22,0.0,-999.0,98,-99.99,,,0.00,Acu-Link.com,2013-04-29 09:15:00,
2013-04-29 05:30:00,41.5,41.0,30.22,West,270,0.0,-999.0,98,-99.99,,,0.00,Acu-Link.com,2013-04-29 09:30:00,
2013-04-29 05:45:00,41.5,41.0,30.22,West,270,0.0,-999.0,98,-99.99,,,0.00,Acu-Link.com,2013-04-29 09:45:00,
2013-04-29 06:00:00,41.7,41.2,30.22,NE,45,0.0,-999.0,98,-99.99,,,0.00,Acu-Link.com,2013-04-29 10:00:00,
2013-04-29 06:15:00,41.9,41.4,30.23,NW,315,0.0,-999.0,98,-99.99,,,0.00,Acu-Link.com,2013-04-29 10:15:00,
2013-04-29 06:30:00,42.3,41.8,30.23,SW,225,0.0,-999.0,98,-99.99,,,0.00,Acu-Link.com,2013-04-29 10:30:00,
2013-04-29 06:45:00,42.8,42.3,30.23,ENE,67,0.0,-999.0,98,-99.99,,,0.00,Acu-Link.com,2013-04-29 10:45:00,
2013-04-29 07:00:00,43.7,43.2,30.23,East,90,0.0,-999.0,98,-99.99,,,0.00,Acu-Link.com,2013-04-29 11:00:00,
2013-04-29 07:16:00,44.4,43.9,30.24,SE,135,0.0,-999.0,98,-99.99,,,0.00,Acu-Link.com,2013-04-29 11:16:00,
2013-04-29 07:31:00,46.0,45.5,30.25,NE,45,0.0,-999.0,98,-99.99,,,0.00,Acu-Link.com,2013-04-29 11:31:00,
2013-04-29 07:46:00,48.0,47.5,30.24,West,270,0.0,-999.0,98,-99.99,,,0.00,Acu-Link.com,2013-04-29 11:46:00,
2013-04-29 08:01:00,49.6,47.4,30.24,South,180,0.0,-999.0,92,-99.99,,,0.00,Acu-Link.com,2013-04-29 12:01:00,
2013-04-29 08:16:00,51.3,48.5,30.24,SSE,157,1.1,-999.0,90,-99.99,,,0.00,Acu-Link.com,2013-04-29 12:16:00,
2013-04-29 08:31:00,53.1,49.0,30.24,South,180,0.0,-999.0,86,-99.99,,,0.00,Acu-Link.com,2013-04-29 12:31:00,
2013-04-29 08:46:00,54.7,49.3,30.24,ESE,112,2.7,-999.0,82,-99.99,,,0.00,Acu-Link.com,2013-04-29 12:46:00,
2013-04-29 09:01:00,55.4,49.7,30.24,SSW,202,2.7,-999.0,81,-99.99,,,0.00,Acu-Link.com,2013-04-29 13:01:00,
2013-04-29 09:16:00,57.6,51.1,30.24,WSW,247,1.7,-999.0,79,-99.99,,,0.00,Acu-Link.com,2013-04-29 13:16:00,
2013-04-29 09:32:00,59.4,51.5,30.24,WSW,247,0.0,-999.0,75,-99.99,,,0.00,Acu-Link.com,2013-04-29 13:32:00,
2013-04-29 09:47:00,61.7,52.2,30.23,West,270,0.0,-999.0,71,-99.99,,,0.00,Acu-Link.com,2013-04-29 13:47:00,
2013-04-29 10:02:00,64.6,49.9,30.23,South,180,4.2,-999.0,59,-99.99,,,0.00,Acu-Link.com,2013-04-29 14:02:00,
2013-04-29 10:17:00,64.6,50.4,30.22,SSW,202,2.2,-999.0,60,-99.99,,,0.00,Acu-Link.com,2013-04-29 14:17:00,
2013-04-29 10:32:00,64.9,47.9,30.22,WSW,247,2.2,-999.0,54,-99.99,,,0.00,Acu-Link.com,2013-04-29 14:32:00,
2013-04-29 10:47:00,63.9,44.9,30.22,South,180,2.7,-999.0,50,-99.99,,,0.00,Acu-Link.com,2013-04-29 14:47:00,
2013-04-29 11:02:00,64.6,45.5,30.22,SSE,157,2.2,-999.0,50,-99.99,,,0.00,Acu-Link.com,2013-04-29 15:02:00,
2013-04-29 11:17:00,67.3,45.2,30.22,West,270,2.7,-999.0,45,-99.99,,,0.00,Acu-Link.com,2013-04-29 15:17:00,
2013-04-29 11:32:00,66.6,42.2,30.22,SSE,157,5.3,-999.0,41,-99.99,,,0.00,Acu-Link.com,2013-04-29 15:32:00,
2013-04-29 11:48:00,68.0,42.8,30.21,South,180,5.3,-999.0,40,-99.99,,,0.00,Acu-Link.com,2013-04-29 15:48:00,
2013-04-29 12:03:00,70.7,44.5,30.20,SSE,157,4.2,-999.0,39,-99.99,,,0.00,Acu-Link.com,2013-04-29 16:03:00,
2013-04-29 12:18:00,70.5,43.7,30.19,South,180,2.2,-999.0,38,-99.99,,,0.00,Acu-Link.com,2013-04-29 16:18:00,
2013-04-29 12:33:00,73.6,47.1,30.19,SSW,202,3.2,-999.0,39,-99.99,,,0.00,Acu-Link.com,2013-04-29 16:33:00,
2013-04-29 12:48:00,72.1,45.1,30.18,South,180,3.2,-999.0,38,-99.99,,,0.00,Acu-Link.com,2013-04-29 16:48:00,
2013-04-29 13:03:00,73.4,46.2,30.18,NW,315,2.7,-999.0,38,-99.99,,,0.00,Acu-Link.com,2013-04-29 17:03:00,
2013-04-29 13:18:00,72.7,44.2,30.18,SSE,157,3.7,-999.0,36,-99.99,,,0.00,Acu-Link.com,2013-04-29 17:18:00,
2013-04-29 13:33:00,70.2,44.7,30.17,NNE,22,0.0,-999.0,40,-99.99,,,0.00,Acu-Link.com,2013-04-29 17:33:00,
2013-04-29 13:48:00,69.8,41.6,30.17,SSW,202,4.2,-999.0,36,-99.99,,,0.00,Acu-Link.com,2013-04-29 17:48:00,
2013-04-29 14:03:00,69.6,42.9,30.17,WSW,247,4.2,-999.0,38,-99.99,,,0.00,Acu-Link.com,2013-04-29 18:03:00,
2013-04-29 14:19:00,68.4,41.8,30.17,SSW,202,2.7,-999.0,38,-99.99,,,0.00,Acu-Link.com,2013-04-29 18:19:00,
2013-04-29 14:34:00,67.5,41.0,30.17,South,180,4.2,-999.0,38,-99.99,,,0.00,Acu-Link.com,2013-04-29 18:34:00,
2013-04-29 14:49:00,68.5,41.2,30.17,SSW,202,2.2,-999.0,37,-99.99,,,0.00,Acu-Link.com,2013-04-29 18:49:00,
2013-04-29 15:04:00,66.4,39.3,30.17,SSW,202,2.2,-999.0,37,-99.99,,,0.00,Acu-Link.com,2013-04-29 19:04:00,
2013-04-29 15:19:00,65.7,39.4,30.18,South,180,2.7,-999.0,38,-99.99,,,0.00,Acu-Link.com,2013-04-29 19:19:00,
2013-04-29 15:34:00,64.4,36.2,30.17,South,180,2.7,-999.0,35,-99.99,,,0.00,Acu-Link.com,2013-04-29 19:34:00,
2013-04-29 15:50:00,64.2,34.5,30.18,SSW,202,2.2,-999.0,33,-99.99,,,0.00,Acu-Link.com,2013-04-29 19:50:00,
2013-04-29 16:05:00,64.8,33.5,30.17,South,180,2.2,-999.0,31,-99.99,,,0.00,Acu-Link.com,2013-04-29 20:05:00,
2013-04-29 16:20:00,63.0,34.9,30.17,South,180,4.7,-999.0,35,-99.99,,,0.00,Acu-Link.com,2013-04-29 20:20:00,
2013-04-29 16:35:00,62.8,33.3,30.17,SE,135,3.7,-999.0,33,-99.99,,,0.00,Acu-Link.com,2013-04-29 20:35:00,
2013-04-29 16:50:00,63.0,31.9,30.17,SW,225,3.2,-999.0,31,-99.99,,,0.00,Acu-Link.com,2013-04-29 20:50:00,
2013-04-29 17:05:00,62.4,31.4,30.18,South,180,3.7,-999.0,31,-99.99,,,0.00,Acu-Link.com,2013-04-29 21:05:00,
2013-04-29 17:21:00,62.6,30.7,30.18,SW,225,1.7,-999.0,30,-99.99,,,0.00,Acu-Link.com,2013-04-29 21:21:00,
2013-04-29 17:36:00,61.9,30.1,30.18,SSW,202,2.2,-999.0,30,-99.99,,,0.00,Acu-Link.com,2013-04-29 21:36:00,
2013-04-29 17:51:00,61.0,30.2,30.18,SW,225,1.1,-999.0,31,-99.99,,,0.00,Acu-Link.com,2013-04-29 21:51:00,
2013-04-29 18:06:00,60.6,32.1,30.18,South,180,1.7,-999.0,34,-99.99,,,0.00,Acu-Link.com,2013-04-29 22:06:00,
2013-04-29 18:21:00,60.1,33.1,30.19,SW,225,2.2,-999.0,36,-99.99,,,0.00,Acu-Link.com,2013-04-29 22:21:00,
2013-04-29 18:36:00,59.2,30.9,30.18,South,180,2.2,-999.0,34,-99.99,,,0.00,Acu-Link.com,2013-04-29 22:36:00,
2013-04-29 18:52:00,58.6,30.3,30.19,South,180,1.7,-999.0,34,-99.99,,,0.00,Acu-Link.com,2013-04-29 22:52:00,
2013-04-29 19:07:00,58.3,30.8,30.19,ESE,112,1.7,-999.0,35,-99.99,,,0.00,Acu-Link.com,2013-04-29 23:07:00,
2013-04-29 19:22:00,57.7,31.6,30.19,SSW,202,1.7,-999.0,37,-99.99,,,0.00,Acu-Link.com,2013-04-29 23:22:00,
2013-04-29 19:37:00,57.0,32.9,30.19,SSW,202,0.0,-999.0,40,-99.99,,,0.00,Acu-Link.com,2013-04-29 23:37:00,
2013-04-29 19:52:00,56.3,31.0,30.20,SW,225,1.7,-999.0,38,-99.99,,,0.00,Acu-Link.com,2013-04-29 23:52:00,
2013-04-29 20:07:00,55.8,29.9,30.20,South,180,1.1,-999.0,37,-99.99,,,0.00,Acu-Link.com,2013-04-30 00:07:00,
2013-04-29 20:22:00,55.2,28.7,30.20,SSW,202,2.2,-999.0,36,-99.99,,,0.00,Acu-Link.com,2013-04-30 00:22:00,
2013-04-29 20:37:00,55.2,28.0,30.20,South,180,1.1,-999.0,35,-99.99,,,0.00,Acu-Link.com,2013-04-30 00:37:00,
2013-04-29 20:52:00,54.7,28.9,30.21,SE,135,0.0,-999.0,37,-99.99,,,0.00,Acu-Link.com,2013-04-30 00:52:00,
2013-04-29 21:07:00,54.3,29.2,30.21,SSW,202,0.0,-999.0,38,-99.99,,,0.00,Acu-Link.com,2013-04-30 01:07:00,
2013-04-29 21:23:00,54.1,30.3,30.22,SW,225,0.0,-999.0,40,-99.99,,,0.00,Acu-Link.com,2013-04-30 01:23:00,
2013-04-29 21:38:00,54.0,30.8,30.21,SSW,202,0.0,-999.0,41,-99.99,,,0.00,Acu-Link.com,2013-04-30 01:38:00,
2013-04-29 21:53:00,53.6,32.2,30.22,South,180,0.0,-999.0,44,-99.99,,,0.00,Acu-Link.com,2013-04-30 01:53:00,
2013-04-29 22:08:00,53.6,33.3,30.22,SSW,202,0.0,-999.0,46,-99.99,,,0.00,Acu-Link.com,2013-04-30 02:08:00,
2013-04-29 22:23:00,53.2,33.5,30.21,SSW,202,0.0,-999.0,47,-99.99,,,0.00,Acu-Link.com,2013-04-30 02:23:00,
2013-04-29 22:38:00,52.9,34.3,30.22,ESE,112,0.0,-999.0,49,-99.99,,,0.00,Acu-Link.com,2013-04-30 02:38:00,
2013-04-29 22:53:00,52.9,34.8,30.22,South,180,0.0,-999.0,50,-99.99,,,0.00,Acu-Link.com,2013-04-30 02:53:00,
2013-04-29 23:08:00,52.7,34.6,30.22,South,180,0.0,-999.0,50,-99.99,,,0.00,Acu-Link.com,2013-04-30 03:08:00,
2013-04-29 23:23:00,52.5,34.4,30.22,SSE,157,0.0,-999.0,50,-99.99,,,0.00,Acu-Link.com,2013-04-30 03:23:00,
2013-04-29 23:39:00,52.3,34.2,30.22,SW,225,0.0,-999.0,50,-99.99,,,0.00,Acu-Link.com,2013-04-30 03:39:00,
2013-04-29 23:54:00,52.2,35.6,30.22,SSE,157,0.0,-999.0,53,-99.99,,,0.00,Acu-Link.com,2013-04-30 03:54:00,